[Date Prev][Date Next][Thread Prev][Thread Next] - [Date Index][Thread Index][Author Index]

2 Line ISS Keps 5-5



ISS
1 25544U 98067A   02125.40006881  .00056278  00000-0  71295-3 0  3985
2 25544  51.6393 268.0254 0007972  31.9717  15.1959 15.58883085197355


----
Via the sarex mailing list at AMSAT.ORG courtesy of AMSAT-NA.
To unsubscribe, send "unsubscribe sarex" to Majordomo@amsat.org



AMSAT Top AMSAT Home